Find STARLINK-37526

NORAD ID: 799500914 Int'l Des: 2026-127W Constellation: starlink operational

当前视图

正在加载3D地球...

关于 STARLINK-37526

正在加载描述...

即将过境

Passes for default location (London). Set your location on the main map for personalized predictions.

高度历史

Loading altitude history...

两行轨道根数

1 99999C 2026127W 26159.87826389 .01010900 00000-0 100220-3 0 1596
2 99999 53.1616 305.0732 0008941 291.2694 186.4657 16.09925099 12
Epoch: Jun 8, 2026 • Age: 5 hours